• In Belarus
  • List of Countries
  • For 7 days
  • Water Temperature
  • Satellite Maps
  • Weather Map
  • Weather Widgets
  • user-avatar
    Login

    Hourly Weather Cybino

    Today, 20 June, Wednesday

    Time Temperature Precipitation Wind Pressure Humidity
    00:00 +17°C° 0.1 mm 4 mps 743 mmHg 81%
    01:00 +15°C° 0.1 mm 4 mps 743 mmHg 84%
    02:00 +16°C° 0 mm 3 mps 743 mmHg 89%
    03:00 +14°C° 0.1 mm 4 mps 743 mmHg 88%
    04:00 +14°C° 0.1 mm 4 mps 743 mmHg 88%
    05:00 +13°C° 0.1 mm 4 mps 744 mmHg 87%
    06:00 +15°C° 0 mm 5 mps 744 mmHg 76%
    07:00 +16°C° 0 mm 5 mps 744 mmHg 65%
    08:00 +19°C° 0 mm 6 mps 744 mmHg 54%
    09:00 +20°C° 0 mm 6 mps 744 mmHg 50%
    10:00 +21°C° 0 mm 6 mps 744 mmHg 46%
    11:00 +21°C° 0 mm 6 mps 744 mmHg 41%
    12:00 +22°C° 0 mm 6 mps 744 mmHg 41%
    13:00 +22°C° 0 mm 6 mps 744 mmHg 41%
    14:00 +22°C° 0 mm 6 mps 744 mmHg 41%
    15:00 +21°C° 0 mm 5 mps 744 mmHg 45%
    16:00 +20°C° 0 mm 4 mps 744 mmHg 49%
    17:00 +20°C° 0 mm 4 mps 744 mmHg 53%
    18:00 +18°C° 0 mm 3 mps 744 mmHg 57%
    19:00 +17°C° 0 mm 3 mps 744 mmHg 60%
    20:00 +16°C° 0 mm 3 mps 744 mmHg 64%
    21:00 +14°C° 0 mm 3 mps 745 mmHg 65%
    22:00 +14°C° 0 mm 3 mps 745 mmHg 67%
    23:00 +13°C° 0 mm 3 mps 745 mmHg 68%

    Tomorrow, 21 June, Thursday

    Time Temperature Precipitation Wind Pressure Humidity
    00:00 +13°C° 0 mm 3 mps 745 mmHg 70%
    01:00 +12°C° 0 mm 3 mps 746 mmHg 72%
    02:00 +12°C° 0 mm 3 mps 746 mmHg 74%
    03:00 +12°C° 0 mm 3 mps 746 mmHg 73%
    04:00 +12°C° 0 mm 4 mps 746 mmHg 71%
    05:00 +12°C° 0 mm 4 mps 746 mmHg 70%
    06:00 +14°C° 0 mm 4 mps 746 mmHg 64%
    07:00 +15°C° 0 mm 4 mps 746 mmHg 59%
    08:00 +16°C° 0 mm 5 mps 746 mmHg 53%
    09:00 +17°C° 0 mm 5 mps 746 mmHg 53%
    10:00 +20°C° 0 mm 5 mps 746 mmHg 53%
    11:00 +21°C° 0 mm 5 mps 746 mmHg 54%
    12:00 +21°C° 0.1 mm 4 mps 745 mmHg 59%
    13:00 +21°C° 0.1 mm 4 mps 745 mmHg 65%
    14:00 +20°C° 0.1 mm 3 mps 745 mmHg 70%
    15:00 +21°C° 0.1 mm 3 mps 745 mmHg 69%
    16:00 +22°C° 0.1 mm 3 mps 745 mmHg 68%
    17:00 +22°C° 0.1 mm 3 mps 745 mmHg 67%
    18:00 +21°C° 0 mm 2 mps 745 mmHg 73%
    19:00 +20°C° 0 mm 2 mps 745 mmHg 79%
    20:00 +20°C° 0 mm 1 mps 745 mmHg 85%
    21:00 +18°C° 0 mm 2 mps 745 mmHg 87%
    22:00 +17°C° 0 mm 2 mps 745 mmHg 90%
    23:00 +16°C° 0 mm 2 mps 745 mmHg 92%

    Day after tomorrow, 22 June, Friday

    Time Temperature Precipitation Wind Pressure Humidity
    00:00 +16°C° 0 mm 2 mps 745 mmHg 93%
    01:00 +16°C° 0 mm 2 mps 745 mmHg 94%
    02:00 +15°C° 0 mm 2 mps 745 mmHg 96%
    03:00 +16°C° 0 mm 3 mps 744 mmHg 92%
    04:00 +17°C° 0 mm 3 mps 744 mmHg 89%
    05:00 +18°C° 0 mm 3 mps 744 mmHg 85%
    06:00 +20°C° 0 mm 4 mps 743 mmHg 78%
    07:00 +22°C° 0 mm 5 mps 743 mmHg 70%
    08:00 +25°C° 0 mm 5 mps 743 mmHg 63%
    09:00 +26°C° 0 mm 6 mps 743 mmHg 60%
    10:00 +27°C° 0 mm 6 mps 742 mmHg 57%
    11:00 +28°C° 0 mm 7 mps 742 mmHg 54%
    12:00 +28°C° 0.3 mm 6 mps 742 mmHg 59%
    13:00 +27°C° 0.3 mm 6 mps 741 mmHg 64%
    14:00 +27°C° 0.3 mm 6 mps 741 mmHg 69%
    15:00 +26°C° 0.9 mm 5 mps 741 mmHg 76%
    16:00 +25°C° 0.9 mm 5 mps 741 mmHg 83%
    17:00 +23°C° 0.9 mm 4 mps 741 mmHg 90%
    18:00 +21°C° 0.8 mm 4 mps 742 mmHg 91%
    19:00 +20°C° 0.8 mm 3 mps 742 mmHg 93%
    20:00 +18°C° 0.8 mm 3 mps 742 mmHg 95%
    21:00 +17°C° 0 mm 2 mps 743 mmHg 95%
    22:00 +17°C° 0 mm 2 mps 743 mmHg 95%
    23:00 +16°C° 0 mm 2 mps 743 mmHg 95%

    23 June, Saturday

    Time Temperature Precipitation Wind Pressure Humidity
    00:00 +15°C° 0 mm 2 mps 743 mmHg 95%
    01:00 +14°C° 0 mm 2 mps 744 mmHg 95%
    02:00 +14°C° 0 mm 2 mps 744 mmHg 95%
    03:00 +14°C° 0 mm 2 mps 744 mmHg 95%
    04:00 +14°C° 0 mm 1 mps 744 mmHg 94%
    05:00 +14°C° 0 mm 1 mps 745 mmHg 94%
    06:00 +14°C° 0.1 mm 1 mps 745 mmHg 94%
    07:00 +14°C° 0.1 mm 1 mps 745 mmHg 94%
    08:00 +14°C° 0.1 mm 1 mps 745 mmHg 95%
    09:00 +14°C° 0.2 mm 1 mps 745 mmHg 95%
    10:00 +14°C° 0.2 mm 1 mps 745 mmHg 94%
    11:00 +14°C° 0.2 mm 1 mps 745 mmHg 94%
    12:00 +14°C° 0.9 mm 1 mps 745 mmHg 94%
    13:00 +14°C° 0.9 mm 2 mps 745 mmHg 94%
    14:00 +14°C° 0.9 mm 2 mps 745 mmHg 94%
    15:00 +13°C° 1.2 mm 2 mps 745 mmHg 95%
    16:00 +12°C° 1.2 mm 3 mps 744 mmHg 95%
    17:00 +11°C° 1.2 mm 3 mps 744 mmHg 96%
    18:00 +11°C° 1.6 mm 3 mps 744 mmHg 96%
    19:00 +11°C° 1.6 mm 3 mps 744 mmHg 96%
    20:00 +10°C° 1.6 mm 3 mps 744 mmHg 97%
    21:00 +10°C° 1 mm 3 mps 744 mmHg 97%
    22:00 +10°C° 1 mm 3 mps 743 mmHg 97%
    23:00 +10°C° 1 mm 3 mps 743 mmHg 97%

    24 June, Sunday

    Time Temperature Precipitation Wind Pressure Humidity
    00:00 +10°C° 1.6 mm 3 mps 743 mmHg 97%
    01:00 +10°C° 1.6 mm 3 mps 743 mmHg 97%
    02:00 +10°C° 1.6 mm 3 mps 743 mmHg 97%
    03:00 +10°C° 0.5 mm 3 mps 743 mmHg 97%
    04:00 +10°C° 0.5 mm 3 mps 743 mmHg 97%
    05:00 +10°C° 0.5 mm 3 mps 743 mmHg 96%
    06:00 +11°C° 0.1 mm 3 mps 743 mmHg 92%
    07:00 +13°C° 0.1 mm 3 mps 744 mmHg 87%
    08:00 +14°C° 0.1 mm 3 mps 744 mmHg 82%
    09:00 +17°C° 0.1 mm 3 mps 745 mmHg 73%
    10:00 +19°C° 0.1 mm 4 mps 745 mmHg 64%
    11:00 +20°C° 0.1 mm 4 mps 746 mmHg 55%
    12:00 +21°C° 0 mm 4 mps 746 mmHg 53%
    13:00 +21°C° 0 mm 4 mps 746 mmHg 51%
    14:00 +22°C° 0 mm 3 mps 746 mmHg 49%
    15:00 +22°C° 0.1 mm 3 mps 747 mmHg 53%
    16:00 +21°C° 0.1 mm 3 mps 747 mmHg 56%
    17:00 +21°C° 0.1 mm 2 mps 747 mmHg 60%
    18:00 +19°C° 0 mm 2 mps 747 mmHg 68%
    19:00 +17°C° 0 mm 2 mps 747 mmHg 76%
    20:00 +16°C° 0 mm 1 mps 748 mmHg 84%
    21:00 +15°C° 0 mm 2 mps 748 mmHg 87%
    22:00 +14°C° 0 mm 2 mps 748 mmHg 90%
    23:00 +13°C° 0 mm 2 mps 748 mmHg 93%

    25 June, Monday

    Time Temperature Precipitation Wind Pressure Humidity
    00:00 +12°C° 0 mm 2 mps 749 mmHg 94%
    01:00 +12°C° 0 mm 2 mps 749 mmHg 95%
    02:00 +12°C° 0 mm 2 mps 749 mmHg 95%
    03:00 +12°C° 0 mm 2 mps 749 mmHg 94%
    04:00 +13°C° 0 mm 2 mps 749 mmHg 92%
    05:00 +13°C° 0 mm 2 mps 749 mmHg 90%
    06:00 +15°C° 0 mm 2 mps 749 mmHg 83%
    07:00 +17°C° 0 mm 2 mps 749 mmHg 77%
    08:00 +18°C° 0 mm 3 mps 750 mmHg 70%
    09:00 +19°C° 0.2 mm 3 mps 750 mmHg 67%
    10:00 +20°C° 0.2 mm 3 mps 749 mmHg 63%
    11:00 +21°C° 0.2 mm 4 mps 749 mmHg 59%
    12:00 +21°C° 0.5 mm 4 mps 749 mmHg 60%
    13:00 +21°C° 0.5 mm 4 mps 749 mmHg 61%
    14:00 +21°C° 0.5 mm 4 mps 749 mmHg 63%
    15:00 +21°C° 0.1 mm 3 mps 749 mmHg 62%
    16:00 +21°C° 0.1 mm 3 mps 749 mmHg 62%
    17:00 +21°C° 0.1 mm 3 mps 749 mmHg 62%
    18:00 +19°C° 0.1 mm 2 mps 749 mmHg 69%
    19:00 +18°C° 0.1 mm 2 mps 749 mmHg 77%
    20:00 +16°C° 0.1 mm 2 mps 750 mmHg 84%
    21:00 +15°C° 0 mm 2 mps 750 mmHg 87%
    22:00 +14°C° 0 mm 1 mps 750 mmHg 90%
    23:00 +13°C° 0 mm 1 mps 750 mmHg 93%
    Show more